Weather in Kumertau

Russia / Republic of Bashkortostan     52°45′23″N   55°47′49″E
temp.,
°C
wind,
m/s
gust,
m/s
humid.,
%
clouds,
%
prec.,
mm/h
press.,
hPa
HPBL,
m
28 february, sun
sun2823:00−5se3597100 0.7 1002135
02:00−2sse4898100 1.3 1000332
05:00−1ssw4898100 2.4 999402
08:00−1ssw4798100 1.3 999291
11:00−1sw4698100 2.4 999397
14:000sw35100100 0.8 1001416
17:00−2wnw579697 1.1 1002309
20:00−8wnw349792 0.2 100682
1 march, mon
mon123:00−10n249694 0.5 100894
02:00−13n229687 0.1 101036
05:00−14nnw119690 0.3 101320
08:00−14n129689 0.2 101520
11:00−13n119184 0.3 1017223
14:00−11wnw1188100 0.1 1017348
17:00−11w3392100 0.3 1018293
20:00−15wnw369699 0.1 1020130
2 march, tue
tue223:00−19w129997 0.2 102120
02:00−21wsw2210099 0.0 102120
05:00−23sw2210097 0.1 102121
08:00−24ssw3410099 0.0 102063
11:00−21s589999 0.0 1018241
14:00−18s81298100 0.1 1015351
17:00−14s81495100 0.7 1013508
20:00−12ssw81494100 1.3 1010605
3 march, wed
wed323:00−7ssw71395100 2.1 1008585
02:00−5ssw71295100 1.0 1005574
05:00−5ssw61196100 2.4 1004521
08:00−4sw5996100 1.2 1003395
11:00−3sw4696100 1.6 1004328
14:00−2sw3495100 0.1 1004424
17:00−1sw3594100 0.3 1003427
20:00−5wnw359699 0.1 1004116
4 march, thu
thu423:00−7wnw369494 0.2 1006131
02:00−10nw359595 0.1 100696
05:00−12nw349596 0.1 100751
08:00−15nw239567 0.0 100921
11:00−11wnw359338 0.0 1010214
14:00−9wsw469580 0.0 1010314
17:00−8sw699490 0.1 1010497
20:00−10ssw71495100 0.0 1010389